Date,TemperatureHighF,TemperatureAvgF,TemperatureLowF,DewpointHighF,DewpointAvgF,DewpointLowF,HumidityHigh,HumidityAvg,HumidityLow,PressureMaxIn,PressureMinIn,WindSpeedMaxMPH,WindSpeedAvgMPH,GustSpeedMaxMPH,PrecipitationSumIn
2012-3-27,53,52,50,53,52,48,98,97,93,29.92,29.85,1,0,10,2.58
2012-3-28,64,55,45,53,49,44,98,84,54,30.12,29.91,3,0,7,0.18
2012-3-29,57,51,44,54,50,44,98,94,85,30.14,30.06,1,0,3,0.02
2012-3-30,60,56,53,57,55,53,99,96,88,30.10,29.89,2,0,7,0.07
2012-3-31,58,52,46,55,49,44,97,90,67,30.01,29.68,5,1,17,0.55
2012-4-1,62,52,39,45,41,37,97,69,42,30.29,30.02,8,2,13,0.00
2012-4-2,68,54,44,49,43,40,94,70,41,30.29,30.05,4,0,6,0.00
2012-4-3,66,51,42,53,46,41,99,85,58,30.12,30.00,7,1,16,0.00
2012-4-4,61,48,37,43,38,33,98,71,39,30.21,30.10,10,1,12,0.00
2012-4-5,61,48,34,37,34,28,95,64,30,30.19,30.07,7,1,12,0.00
2012-4-6,63,46,32,39,34,24,98,69,23,30.29,30.18,3,0,6,0.00
2012-4-7,68,52,34,45,39,33,97,67,31,30.20,30.03,3,0,8,0.00
2012-4-8,69,51,35,47,40,31,97,72,30,30.09,30.01,3,0,5,0.00
2012-4-9,72,54,41,47,41,31,96,70,23,30.03,29.82,3,0,6,0.00
2012-4-10,56,52,50,54,51,46,98,95,82,29.89,29.81,3,0,7,0.96
2012-4-11,58,52,48,53,49,47,100,89,72,29.94,29.81,6,0,6,0.08
2012-4-12,60,50,45,51,47,44,98,89,57,30.01,29.77,6,1,17,1.08
2012-4-13,59,51,43,48,44,39,98,78,53,29.88,29.72,8,1,12,0.30
2012-4-14,72,55,43,53,44,38,95,68,38,30.12,29.88,5,0,8,0.00
2012-4-15,68,54,43,57,49,42,99,84,64,30.23,30.13,6,1,10,0.00
2012-4-16,71,55,42,53,48,42,98,79,48,30.24,30.17,5,0,8,0.00
2012-4-17,70,55,44,57,50,43,99,86,58,30.20,30.07,5,0,8,0.00
2012-4-18,74,60,47,56,51,46,98,76,48,30.15,30.06,6,1,11,0.00
2012-4-19,85,67,50,66,57,49,98,75,46,30.17,30.05,4,1,9,0.00
2012-4-20,89,73,58,67,59,53,91,64,34,30.08,29.94,3,1,8,0.00
2012-4-21,92,70,51,64,57,50,98,69,34,29.98,29.82,3,0,6,0.00
2012-4-22,80,63,51,62,55,51,98,79,49,29.93,29.84,9,1,13,0.00
2012-4-23,63,57,54,55,54,51,97,89,75,30.02,29.92,2,0,5,0.03
2012-4-24,69,61,56,61,57,54,98,88,70,30.06,29.96,4,0,7,0.11
2012-4-25,71,61,56,58,56,55,96,84,61,30.02,29.77,5,0,5,0.02
2012-4-26,66,58,49,56,48,41,96,72,42,30.21,29.77,10,2,14,0.02
2012-4-27,74,59,43,48,43,38,91,61,31,30.25,30.11,5,1,10,0.00
2012-4-28,84,66,48,57,50,41,87,58,36,30.14,29.87,4,1,8,0.00
2012-4-29,86,66,48,59,53,47,97,68,30,29.92,29.84,5,0,7,0.00
2012-4-30,85,65,48,59,52,47,98,67,37,29.96,29.87,6,1,9,0.00
2012-5-1,78,61,47,51,44,36,91,58,24,29.93,29.82,6,1,10,0.00
2012-5-2,71,55,40,50,44,38,96,68,46,29.96,29.88,11,1,15,0.00
2012-5-3,61,54,46,59,52,44,96,91,85,30.09,29.95,4,0,5,0.11
2012-5-4,71,59,49,53,47,43,96,67,39,30.21,30.08,7,2,11,0.00
2012-5-5,83,64,49,48,43,37,76,52,20,30.23,30.04,6,1,7,0.00
2012-5-6,89,69,49,53,45,36,91,49,17,30.08,29.97,5,0,11,0.00
2012-5-7,92,67,45,55,47,38,98,59,16,30.02,29.91,4,0,8,0.00
2012-5-8,93,62,44,60,49,43,98,69,18,29.97,29.86,4,0,7,0.00
2012-5-9,86,64,45,60,52,43,98,70,40,29.95,29.84,4,0,8,0.00
2012-5-10,89,63,43,54,48,41,97,65,24,29.92,29.81,5,0,9,0.00
2012-5-11,90,66,45,54,48,41,98,62,20,29.97,29.86,5,0,9,0.00
2012-5-12,85,61,45,57,50,44,98,72,31,30.05,29.96,5,1,10,0.00
2012-5-13,70,56,48,55,50,46,94,79,56,30.09,30.02,3,0,8,0.00
2012-5-14,75,60,45,56,50,43,97,73,48,30.10,30.02,3,0,7,0.00
2012-5-15,76,58,48,59,51,47,97,79,52,30.06,29.96,6,1,12,0.00
2012-5-16,77,59,51,61,52,49,93,79,52,30.03,29.91,8,1,13,0.00
2012-5-17,82,63,51,59,49,39,94,65,27,29.94,29.78,9,1,14,0.00
2012-5-18,86,63,45,55,47,39,94,60,27,29.97,29.87,5,0,12,0.00
2012-5-19,86,63,42,55,48,41,97,64,30,29.98,29.89,6,1,9,0.00
2012-5-20,89,65,47,58,51,44,91,64,30,29.98,29.88,9,1,11,0.00
2012-5-21,82,64,48,60,54,46,96,73,42,30.08,29.98,6,1,11,0.00
2012-5-22,82,64,53,57,52,47,97,68,32,30.11,30.02,7,1,11,0.00
2012-5-23,79,65,56,50,46,42,76,53,32,30.04,29.91,17,4,20,0.01
2012-5-24,75,63,53,47,43,41,66,49,35,29.93,29.73,11,3,22,0.00
2012-5-25,75,60,50,48,42,39,75,55,29,29.82,29.71,8,2,15,0.00
2012-5-26,76,62,47,54,49,44,92,65,42,30.06,29.83,5,0,8,0.00
2012-5-27,77,59,46,55,49,44,95,72,44,30.13,30.05,4,0,11,0.00
2012-5-28,78,59,44,55,48,42,96,72,42,30.06,29.95,3,0,7,0.00
2012-5-29,82,62,43,57,49,41,97,68,37,30.06,29.98,10,1,10,0.00
2012-5-30,89,65,45,60,51,44,96,66,34,30.09,29.97,4,0,6,0.00
2012-5-31,95,67,46,62,52,45,96,65,24,30.02,29.83,4,0,6,0.00
2012-6-1,95,72,52,66,56,50,94,63,33,29.84,29.71,7,0,11,0.00
2012-6-2,90,70,53,61,52,42,92,59,19,29.92,29.80,7,1,11,0.00
2012-6-3,85,65,48,57,50,47,95,64,31,29.93,29.84,9,1,12,0.00
2012-6-4,67,60,51,56,51,43,92,72,53,30.10,29.88,13,2,19,0.02
2012-6-5,74,59,43,45,42,40,92,59,30,30.18,30.10,11,2,13,0.00
2012-6-6,84,66,51,49,43,39,73,48,22,30.13,29.92,8,2,11,0.00
2012-6-7,86,67,46,56,48,43,89,57,26,30.00,29.92,7,2,12,0.00
2012-6-8,80,65,54,50,44,40,76,51,24,29.99,29.90,10,3,15,0.00
2012-6-9,86,68,52,47,39,17,61,39,8,30.01,29.88,13,2,16,0.00
2012-6-10,94,76,58,52,42,23,71,35,8,29.90,29.83,5,1,9,0.00
2012-6-11,97,73,51,57,51,45,91,53,18,29.93,29.86,5,0,7,0.00
2012-6-12,92,73,52,57,52,49,89,53,26,29.95,29.86,12,3,18,0.00
2012-6-13,90,69,51,62,54,48,90,61,35,29.87,29.70,5,1,7,0.00
2012-6-14,95,70,49,59,47,34,91,52,21,29.79,29.71,11,2,17,0.00
2012-6-15,97,75,55,60,49,37,70,42,25,29.79,29.71,4,1,7,0.00
2012-6-16,108,77,54,65,57,51,91,56,17,29.84,29.72,4,0,6,0.00
2012-6-17,86,69,54,60,56,50,91,66,38,29.87,29.75,3,1,8,0.00
2012-6-18,79,62,53,58,52,48,91,71,45,29.90,29.78,4,1,7,0.00
2012-6-19,89,66,48,60,52,46,94,66,34,29.90,29.80,4,0,6,0.00
2012-6-20,95,70,50,57,51,40,96,59,15,29.84,29.75,6,1,8,0.00
2012-6-21,78,61,49,57,51,47,95,73,46,29.92,29.78,5,1,10,0.00
2012-6-22,68,56,47,56,51,45,95,83,64,29.96,29.86,7,1,8,0.00
2012-6-23,71,58,45,50,48,44,97,72,43,29.93,29.84,12,2,13,0.00
2012-6-24,74,58,42,51,46,40,95,68,40,30.03,29.92,8,1,13,0.00
2012-6-25,74,58,43,52,48,41,93,70,45,30.08,30.01,10,2,18,0.00
2012-6-26,80,63,44,53,48,42,96,62,34,30.06,29.88,7,2,12,0.00
2012-6-27,88,67,47,54,47,37,93,56,18,29.92,29.84,7,1,10,0.00
2012-6-28,87,66,48,57,52,46,95,66,33,30.05,29.93,7,1,8,0.00
2012-6-29,80,65,50,60,55,48,96,74,48,30.09,29.98,4,1,10,0.00
2012-6-30,85,68,54,65,59,53,95,75,50,30.02,29.90,8,1,12,0.00
2012-7-1,86,71,60,65,60,54,91,71,48,29.93,29.82,5,1,8,0.00
2012-7-2,89,68,54,65,56,51,95,69,39,29.87,29.79,3,0,7,0.00
2012-7-3,92,69,49,61,53,47,94,62,33,29.88,29.75,4,1,6,0.00
2012-7-4,88,68,51,60,53,48,93,64,36,29.85,29.78,3,0,7,0.00
2012-7-5,85,63,48,57,51,46,94,70,36,29.96,29.85,5,1,8,0.00
2012-7-6,92,66,46,61,52,44,96,66,31,30.01,29.91,3,0,8,0.00
2012-7-7,97,69,48,59,51,45,94,60,21,29.98,29.88,4,0,7,0.00
2012-7-8,90,64,48,58,52,47,96,69,30,30.01,29.93,4,1,7,0.00
2012-7-9,90,67,53,61,54,50,93,67,32,30.04,29.90,3,1,6,0.00
2012-7-10,100,71,48,63,52,42,95,61,14,29.95,29.78,4,0,7,0.00
2012-7-11,101,72,51,63,55,48,94,60,25,29.86,29.75,3,0,7,0.00
2012-7-12,96,68,51,63,54,49,93,66,29,29.83,29.73,4,0,6,0.00
2012-7-13,81,62,48,57,52,46,95,72,42,29.89,29.81,4,1,9,0.00
2012-7-14,82,64,54,61,54,51,89,72,45,29.94,29.84,5,1,7,0.00
2012-7-15,82,63,53,61,54,50,93,75,45,29.91,29.81,5,1,8,0.00
2012-7-16,75,59,52,56,52,49,91,78,51,29.89,29.82,6,1,9,0.00
2012-7-17,68,61,54,56,54,50,88,77,62,29.99,29.87,4,0,7,0.00
2012-7-18,78,61,47,59,52,46,96,76,45,30.02,29.94,4,1,8,0.00
2012-7-19,81,64,54,61,55,51,93,75,48,30.04,29.96,6,1,9,0.00
2012-7-20,95,69,51,61,55,49,97,67,28,30.08,29.93,4,0,7,0.00
2012-7-21,102,74,53,62,55,50,94,59,19,29.97,29.82,4,1,9,0.00
2012-7-22,98,71,51,63,55,49,95,63,27,29.89,29.78,3,0,5,0.00
2012-7-23,86,66,53,60,54,50,90,68,41,29.93,29.85,7,1,9,0.00
2012-7-24,81,64,54,57,54,51,92,71,42,29.98,29.90,6,1,8,0.00
2012-7-25,81,64,53,59,53,50,93,72,41,30.01,29.91,5,1,9,0.00
2012-7-26,78,62,54,58,53,51,91,75,47,29.99,29.91,3,0,7,0.00
2012-7-27,85,63,53,61,53,50,93,74,44,30.02,29.93,6,1,7,0.00
2012-7-28,91,67,54,62,55,52,94,70,34,30.03,29.92,3,1,6,0.00
2012-7-29,90,67,50,61,54,48,97,69,32,30.03,29.90,6,1,7,0.00
2012-7-30,99,70,50,63,54,48,96,64,24,29.97,29.82,3,0,8,0.00
2012-7-31,96,68,50,61,53,48,96,64,27,29.96,29.87,4,1,7,0.00
2012-8-1,90,67,48,60,53,46,96,67,32,30.04,29.92,3,1,8,0.00
2012-8-2,91,66,48,61,53,46,96,68,31,29.98,29.84,4,0,6,0.00
2012-8-3,86,63,52,61,54,50,94,75,39,29.89,29.78,3,0,7,0.00
2012-8-4,72,60,52,58,54,49,93,81,60,29.96,29.84,5,1,7,0.00
2012-8-5,81,65,58,63,58,54,91,78,51,30.07,29.95,4,1,8,0.00
2012-8-6,91,68,56,62,56,51,92,71,34,30.12,30.00,3,0,7,0.00
2012-8-7,95,68,47,62,51,42,97,64,16,30.04,29.91,3,0,6,0.00
2012-8-8,101,70,48,58,52,46,96,60,20,30.00,29.85,4,0,7,0.00
2012-8-9,101,70,49,60,53,47,95,63,20,29.93,29.78,4,0,8,0.00
2012-8-10,99,69,50,60,53,48,95,63,23,29.83,29.69,4,0,7,0.00
2012-8-11,101,69,49,61,53,47,96,64,23,29.82,29.69,4,0,7,0.00
2012-8-12,92,64,49,58,51,47,94,69,26,29.86,29.75,5,1,7,0.00
2012-8-13,97,69,51,60,52,48,91,62,19,29.85,29.73,4,0,7,0.00
2012-8-14,88,65,52,57,53,49,88,67,31,29.82,29.75,3,0,7,0.00
2012-8-15,85,65,53,61,55,51,91,72,35,29.90,29.80,5,0,7,0.00
2012-8-16,89,65,51,60,54,49,94,72,35,29.96,29.84,3,0,5,0.00
2012-8-17,87,65,53,60,54,51,95,72,38,30.00,29.87,6,1,8,0.00
2012-8-18,93,69,54,62,55,50,90,65,31,29.95,29.84,6,1,9,0.00
2012-8-19,86,63,48,59,52,46,97,72,36,29.95,29.85,2,0,7,0.00
2012-8-20,90,64,50,60,52,48,97,73,34,29.93,29.80,4,0,7,0.00
2012-8-21,89,65,51,60,54,49,95,71,34,29.91,29.80,4,0,7,0.00
2012-8-22,85,62,48,60,53,46,97,76,41,29.92,29.84,4,1,7,0.00
2012-8-23,84,62,51,61,53,49,96,77,42,29.95,29.82,4,0,7,0.00
2012-8-24,86,61,47,61,52,46,98,77,39,29.90,29.80,4,0,6,0.00
2012-8-25,77,59,50,56,52,48,94,79,46,29.88,29.77,5,1,6,0.00
2012-8-26,80,63,52,56,52,48,90,72,42,29.96,29.83,8,1,8,0.00
2012-8-27,90,66,47,62,54,46,96,70,36,30.04,29.91,5,0,8,0.00
2012-8-28,92,70,50,59,51,47,97,59,23,30.01,29.89,6,1,10,0.00
2012-8-29,97,68,47,55,48,42,96,60,17,29.92,29.75,4,1,7,0.00
2012-8-30,88,64,48,56,50,45,93,67,30,29.82,29.73,5,1,7,0.00
2012-8-31,76,60,50,58,53,48,91,77,51,29.93,29.82,5,1,7,0.00
2012-9-1,82,61,48,59,52,46,96,76,43,30.04,29.93,6,1,7,0.00
2012-9-2,93,65,45,57,49,38,97,66,15,29.99,29.85,5,0,8,0.00
2012-9-3,97,67,46,54,48,38,96,60,14,29.96,29.86,4,0,7,0.00
2012-9-4,88,62,49,56,51,46,96,72,30,30.01,29.91,3,0,7,0.00
2012-9-5,74,59,52,58,52,49,96,81,47,29.99,29.91,3,0,6,0.00
2012-9-6,82,60,48,55,50,45,94,75,36,30.02,29.92,4,1,6,0.00
2012-9-7,87,61,45,53,49,43,95,70,27,30.10,29.97,3,1,7,0.00
2012-9-8,85,62,48,57,51,46,97,71,37,30.06,29.91,4,0,7,0.00
2012-9-9,89,62,42,55,49,41,97,69,27,29.98,29.84,6,0,7,0.00
2012-9-10,93,64,45,57,49,43,97,67,19,29.92,29.76,4,0,7,0.00
2012-9-11,87,63,47,60,52,46,97,73,37,29.95,29.82,5,0,7,0.00
2012-9-12,86,62,49,59,53,48,97,75,35,30.07,29.94,3,0,6,0.00
2012-9-13,90,63,48,58,52,46,96,72,31,30.08,29.97,2,0,6,0.00
2012-9-14,85,63,51,59,53,48,94,75,40,30.10,29.97,4,0,6,0.00
2012-9-15,86,62,50,58,51,47,97,74,32,30.10,29.96,4,0,6,0.00
2012-9-16,83,59,47,54,48,41,97,74,23,30.05,29.93,3,0,7,0.00
2012-9-17,78,58,50,56,50,47,94,78,44,30.07,29.96,6,1,8,0.00
2012-9-18,83,59,49,55,50,46,92,75,36,30.11,29.98,3,0,6,0.00
2012-9-19,83,60,47,55,50,45,96,76,35,30.11,29.99,4,0,7,0.00
2012-9-20,86,58,42,57,48,40,97,73,34,30.07,29.92,4,0,6,0.00
2012-9-21,89,61,41,53,47,39,96,68,24,29.99,29.84,5,0,6,0.00
2012-9-22,93,62,42,53,46,37,97,65,14,29.93,29.82,4,0,7,0.00
2012-9-23,89,61,46,53,47,44,93,67,22,29.95,29.88,3,0,8,0.00
2012-9-24,85,60,49,59,52,48,96,76,37,29.97,29.84,3,0,6,0.00
2012-9-25,78,59,45,58,50,43,97,77,44,29.92,29.82,5,0,6,0.00
2012-9-26,82,61,50,59,52,49,97,78,42,29.89,29.79,3,0,8,0.00
2012-9-27,94,63,47,60,51,46,97,72,26,29.93,29.79,3,0,5,0.00
2012-9-28,76,58,48,58,51,46,97,82,52,29.96,29.87,4,0,6,0.00
2012-9-29,85,62,51,59,53,48,97,76,34,30.03,29.94,4,1,6,0.00
2012-9-30,99,65,43,54,46,40,97,63,13,30.06,29.93,4,0,6,0.00
2012-10-1,104,70,48,50,46,29,89,53,8,29.99,29.86,4,0,6,0.00
2012-10-2,105,71,49,51,47,40,89,53,11,29.87,29.74,5,0,7,0.00
2012-10-3,91,66,50,56,50,45,89,62,22,29.99,29.79,4,1,9,0.00
2012-10-4,73,61,51,57,54,49,91,78,55,30.12,30.00,3,0,7,0.00
2012-10-5,72,58,48,57,51,46,96,80,54,30.14,30.05,8,1,11,0.00
2012-10-6,76,57,44,56,50,42,97,80,46,30.07,29.94,4,0,7,0.00
2012-10-7,78,59,48,57,51,46,96,79,43,30.01,29.90,6,1,7,0.00
2012-10-8,75,54,42,54,48,41,97,80,49,30.03,29.96,6,1,8,0.00
2012-10-9,75,56,45,53,48,44,96,79,43,30.03,29.92,7,1,8,0.00
2012-10-10,80,57,44,57,49,42,97,78,36,29.97,29.83,4,0,6,0.00
2012-10-11,61,56,50,53,51,49,96,85,75,29.94,29.85,4,0,6,0.00
2012-10-12,65,57,47,54,50,45,92,79,63,30.23,29.94,1,0,5,0.00
2012-10-13,80,59,45,60,52,44,97,79,49,30.30,30.13,4,0,8,0.00
2012-10-14,82,62,52,62,56,51,98,83,48,30.21,30.04,2,0,5,0.01
2012-10-15,88,66,51,62,56,50,98,74,35,30.09,29.92,7,1,11,0.00
2012-10-16,89,73,60,66,60,52,94,66,37,29.98,29.83,9,2,13,0.00
2012-10-17,96,68,50,52,47,38,92,53,17,29.91,29.76,4,1,6,0.00
2012-10-18,91,63,46,58,48,40,92,63,20,30.02,29.87,6,0,8,0.00
2012-10-19,79,64,57,60,57,54,94,79,50,30.05,29.90,4,0,6,0.00
2012-10-20,81,62,53,58,49,32,98,69,18,29.91,29.75,6,1,10,0.00
2012-10-21,71,56,43,49,40,33,88,59,27,29.91,29.82,6,1,11,0.01
2012-10-22,61,54,48,54,50,47,98,89,64,29.91,29.71,9,1,13,1.25
2012-10-23,63,51,45,51,47,43,98,86,49,30.05,29.91,7,0,10,0.03
2012-10-24,64,55,50,54,50,48,98,86,57,30.20,30.01,5,1,12,0.14
2012-10-25,69,56,48,54,50,44,98,81,44,30.27,30.19,4,0,7,0.09
2012-10-26,80,58,44,56,49,43,98,76,39,30.24,30.07,5,1,7,0.01
2012-10-27,86,66,51,61,56,50,97,73,39,30.08,29.92,2,1,5,0.00
2012-10-28,84,62,50,61,55,49,98,80,35,30.01,29.91,3,0,5,0.00
2012-10-29,80,58,45,59,52,44,99,83,38,30.10,30.00,3,0,5,0.00
2012-10-30,72,56,48,61,53,48,98,91,69,30.07,29.94,3,0,4,0.00
2012-10-31,61,57,55,58,56,54,98,96,88,30.00,29.95,2,0,5,0.98
2012-11-1,68,59,48,59,56,47,99,90,66,30.06,29.98,4,0,6,0.00
2012-11-2,67,52,44,56,49,43,99,89,55,30.09,30.01,3,0,4,0.01
2012-11-3,78,58,49,58,52,48,99,83,49,30.14,30.06,4,0,5,0.00
2012-11-4,82,60,48,62,55,47,99,84,46,30.20,30.10,2,0,4,0.00
2012-11-5,79,61,49,63,56,49,99,86,55,30.14,30.02,2,0,5,0.01
2012-11-6,79,59,48,61,54,47,99,85,50,30.08,29.97,3,0,5,0.00
2012-11-7,61,54,48,57,52,47,99,95,86,30.05,29.90,1,0,4,0.01
2012-11-8,56,48,38,50,43,37,97,81,58,29.92,29.85,8,2,13,0.03
2012-11-9,58,43,35,44,38,34,98,84,48,29.98,29.89,6,1,11,0.00
2012-11-10,60,43,32,46,36,32,98,80,39,30.25,29.98,7,1,11,0.01
2012-11-11,60,43,32,43,37,31,98,83,48,30.39,30.25,3,0,7,0.00
2012-11-12,66,48,37,43,40,34,97,78,37,30.38,30.25,3,0,6,0.00
2012-11-13,68,50,40,52,45,39,98,83,49,30.27,30.08,2,0,4,0.00
2012-11-14,73,52,41,56,47,40,99,86,55,30.13,30.01,4,0,6,0.00
2012-11-15,68,52,39,54,46,39,99,85,47,30.03,29.93,3,0,6,0.00
2012-11-16,58,54,47,56,53,45,98,95,90,29.99,29.85,1,0,3,0.98
2012-11-17,63,57,50,59,56,49,99,95,76,30.00,29.77,8,0,10,1.68
2012-11-18,57,49,39,52,47,39,99,94,78,30.16,30.00,1,0,5,0.01
2012-11-19,61,56,51,56,53,50,98,90,76,30.21,30.12,1,0,5,0.04
2012-11-20,60,58,56,60,58,55,99,98,96,30.12,29.96,3,1,8,1.23
2012-11-21,63,55,45,57,52,43,99,88,57,30.21,30.01,4,0,10,0.03
2012-11-22,67,49,39,51,44,38,99,86,50,30.27,30.17,3,0,6,0.00
2012-11-23,69,50,39,52,45,38,99,86,48,30.27,30.16,4,0,5,0.01
2012-11-24,70,50,38,56,45,37,99,86,47,30.20,30.03,2,0,5,0.00
2012-11-25,68,50,40,56,47,40,99,90,62,30.03,29.91,3,0,4,0.01
2012-11-26,65,50,40,55,48,40,99,92,68,30.07,29.97,5,0,5,0.01
2012-11-27,60,55,51,54,52,50,97,89,74,30.11,29.98,2,0,5,0.00
2012-11-28,60,55,51,56,53,50,98,91,75,30.01,29.80,3,0,13,1.40
2012-11-29,60,57,51,60,56,50,99,95,82,30.01,29.77,7,1,11,1.26
2012-11-30,60,58,57,60,58,56,99,98,96,29.95,29.73,6,1,12,1.35
2012-12-1,62,58,57,61,58,56,99,98,94,30.00,29.81,6,1,7,0.85
2012-12-2,61,54,43,61,52,42,99,90,64,30.10,29.64,14,1,22,1.38
2012-12-3,59,49,39,52,46,39,99,92,71,30.20,30.10,3,0,5,0.00
2012-12-4,56,54,52,54,53,50,99,96,92,30.22,30.12,3,0,4,0.68
2012-12-5,61,57,54,60,57,54,100,99,96,30.16,30.08,2,0,4,0.27
2012-12-6,60,53,42,57,50,41,99,89,70,30.14,30.07,5,1,8,0.00
2012-12-7,62,45,37,51,42,36,99,90,56,30.15,30.06,4,0,5,0.00
2012-12-8,60,44,35,50,41,34,99,90,62,30.13,30.03,3,0,5,0.01
2012-12-9,68,50,39,52,44,38,99,85,49,30.18,30.09,3,0,5,0.00
2012-12-10,68,49,39,56,46,38,99,89,59,30.23,30.10,2,0,5,0.01
2012-12-11,58,47,37,53,45,37,99,94,84,30.10,29.84,3,0,6,0.04
2012-12-12,56,44,35,48,41,34,99,90,58,29.90,29.81,6,1,8,0.01
2012-12-13,55,39,32,44,36,31,99,89,50,29.94,29.84,3,0,5,0.00
2012-12-14,54,41,33,47,38,32,98,90,62,30.04,29.82,3,0,6,0.05
2012-12-15,44,39,32,44,39,31,99,98,97,30.08,29.98,2,0,4,0.15
2012-12-16,52,47,44,52,47,43,100,99,98,30.10,29.97,2,0,3,0.43
2012-12-17,58,52,44,55,48,38,100,90,67,30.04,29.94,8,1,11,0.09
2012-12-18,52,43,34,38,34,32,96,72,51,30.20,29.99,12,2,15,0.00
2012-12-19,51,37,28,36,32,27,97,81,47,30.32,30.19,3,0,6,0.00
2012-12-20,54,45,33,49,41,32,96,87,69,30.20,29.93,7,1,8,0.01
2012-12-21,53,51,49,53,50,48,99,97,96,29.93,29.81,3,1,6,0.02
2012-12-22,55,49,44,53,46,42,99,92,72,30.04,29.77,6,1,19,0.02
2012-12-23,60,50,40,57,49,40,99,95,77,30.03,29.80,10,1,16,0.04
2012-12-24,55,44,37,48,42,36,99,93,70,30.21,30.00,3,0,5,0.00
2012-12-25,45,43,39,45,43,39,99,98,95,30.14,29.76,8,0,9,0.00
2012-12-26,55,47,41,49,43,40,100,89,67,30.09,29.83,9,1,17,0.00
2012-12-27,56,46,38,42,40,37,97,82,49,30.17,30.09,4,0,11,0.00
2012-12-28,48,42,35,44,40,34,99,93,82,30.18,30.04,2,0,5,0.00
2012-12-29,57,45,37,45,41,36,98,88,53,30.08,30.00,4,0,6,0.00
2012-12-30,57,41,32,44,37,32,99,88,54,30.19,30.05,3,0,5,0.00
2012-12-31,54,39,30,44,36,29,99,89,59,30.30,30.19,3,0,5,0.00
2013-1-1,58,40,32,40,34,31,98,83,40,30.28,30.18,4,1,7,0.00